UAL1574 KEWR-KCHS

Flight info

Callsign UAL1574
Flight time 1h 48m
Altitude 34000
Route ELVAE NECCK WHITE Q409 CRPLR DFENC Q109 JOHAR AMYLU AMYLU3
Aircraft A320/M-SDE3FGHIRWY/LB1

Departure

Time 2026-05-07 18:19
Airport Newark Liberty International Airport (KEWR)

Arrival

Time 2026-05-07 20:07
Airport Charleston International Airport (KCHS)
Time Latitude Longitude Altitude Speed Heading
2026-05-07 17:54 40.68310 -74.18461 22 ft 0 kts
2026-05-07 18:11 40.68290 -74.18465 25 ft 4 kts 17°
2026-05-07 18:11 40.68266 -74.18479 22 ft 4 kts 41°
2026-05-07 18:12 40.68251 -74.18505 24 ft 4 kts 84°
2026-05-07 18:12 40.68251 -74.18515 23 ft 1 kts 94°
2026-05-07 18:14 40.68248 -74.18473 22 ft 14 kts 94°
2026-05-07 18:15 40.68240 -74.18334 22 ft 15 kts 95°
2026-05-07 18:15 40.68234 -74.18195 22 ft 16 kts 84°
2026-05-07 18:15 40.68235 -74.18049 22 ft 17 kts 93°
2026-05-07 18:15 40.68203 -74.17908 22 ft 14 kts 116°
2026-05-07 18:16 40.68159 -74.17790 22 ft 12 kts 116°
2026-05-07 18:16 40.68095 -74.17758 22 ft 12 kts 199°
2026-05-07 18:16 40.68005 -74.17808 22 ft 16 kts 205°
2026-05-07 18:16 40.67901 -74.17876 22 ft 17 kts 206°
2026-05-07 18:17 40.67785 -74.17949 22 ft 20 kts 206°
2026-05-07 18:17 40.67664 -74.18027 22 ft 15 kts 204°
2026-05-07 18:17 40.67579 -74.17997 22 ft 15 kts 125°
2026-05-07 18:17 40.67596 -74.17907 23 ft 8 kts 24°
2026-05-07 18:18 40.67618 -74.17894 22 ft 22 kts 25°
2026-05-07 18:18 40.67978 -74.17668 20 ft 90 kts 25°
2026-05-07 18:18 40.68704 -74.17209 26 ft 139 kts 25°
2026-05-07 18:18 40.69687 -74.16575 182 ft 165 kts 23°
2026-05-07 18:19 40.70737 -74.15870 670 ft 173 kts 25°
2026-05-07 18:19 40.71819 -74.15163 1318 ft 173 kts 22°
2026-05-07 18:19 40.72945 -74.14584 1899 ft 180 kts
2026-05-07 18:19 40.74259 -74.14492 2164 ft 201 kts 350°
2026-05-07 18:20 40.75566 -74.15281 2476 ft 221 kts 315°
2026-05-07 18:20 40.76256 -74.17097 3106 ft 231 kts 277°
2026-05-07 18:20 40.75908 -74.19168 3857 ft 240 kts 238°
2026-05-07 18:20 40.74636 -74.20607 4454 ft 258 kts 208°
2026-05-07 18:21 40.72912 -74.21472 5110 ft 270 kts 198°
2026-05-07 18:21 40.71072 -74.22089 5967 ft 275 kts 195°
2026-05-07 18:21 40.69187 -74.22646 6817 ft 279 kts 197°
2026-05-07 18:21 40.67301 -74.23212 7693 ft 278 kts 199°
2026-05-07 18:22 40.65423 -74.23810 8642 ft 276 kts 201°
2026-05-07 18:22 40.64796 -74.24018 8973 ft 275 kts 202°
2026-05-07 18:22 40.61754 -74.25062 10420 ft 274 kts 204°
2026-05-07 18:22 40.59843 -74.25755 10630 ft 296 kts 204°
2026-05-07 18:23 40.57837 -74.26494 11108 ft 305 kts 203°
2026-05-07 18:23 40.55727 -74.27055 11833 ft 315 kts 193°
2026-05-07 18:23 40.53492 -74.26915 12599 ft 329 kts 179°
2026-05-07 18:23 40.51266 -74.26011 13389 ft 340 kts 169°
2026-05-07 18:24 40.49055 -74.24894 14103 ft 341 kts 169°
2026-05-07 18:24 40.46833 -74.23778 14671 ft 344 kts 169°
2026-05-07 18:24 40.45347 -74.23038 15026 ft 346 kts 170°
2026-05-07 18:24 40.43077 -74.21912 15595 ft 350 kts 170°
2026-05-07 18:25 40.40787 -74.20780 16163 ft 354 kts 170°
2026-05-07 18:25 40.38478 -74.19639 16744 ft 357 kts 170°
2026-05-07 18:25 40.36142 -74.18484 17318 ft 360 kts 171°
2026-05-07 18:25 40.33778 -74.17388 17879 ft 358 kts 176°
2026-05-07 18:26 40.31366 -74.16806 18430 ft 348 kts 186°
2026-05-07 18:26 40.28990 -74.16805 18980 ft 337 kts 196°
2026-05-07 18:26 40.26716 -74.17325 19600 ft 328 kts 204°
2026-05-07 18:26 40.24493 -74.18009 20228 ft 327 kts 204°
2026-05-07 18:27 40.22276 -74.18679 20922 ft 326 kts 204°
2026-05-07 18:27 40.20071 -74.19337 21566 ft 325 kts 204°
2026-05-07 18:27 40.17862 -74.19994 22194 ft 325 kts 205°
2026-05-07 18:27 40.15655 -74.20654 22809 ft 325 kts 205°
2026-05-07 18:28 40.13453 -74.21315 23403 ft 325 kts 205°
2026-05-07 18:28 40.11256 -74.21975 23885 ft 325 kts 205°
2026-05-07 18:28 40.09047 -74.22637 24321 ft 326 kts 205°
2026-05-07 18:28 40.06826 -74.23302 24753 ft 328 kts 205°
2026-05-07 18:29 40.04598 -74.23971 25111 ft 330 kts 205°
2026-05-07 18:29 40.02358 -74.24664 25509 ft 328 kts 208°
2026-05-07 18:29 40.00270 -74.25729 25905 ft 318 kts 217°
2026-05-07 18:29 39.98426 -74.27259 26291 ft 312 kts 224°
2026-05-07 18:30 39.96673 -74.28943 26674 ft 314 kts 224°
2026-05-07 18:30 39.94912 -74.30628 27059 ft 315 kts 224°
2026-05-07 18:30 39.93163 -74.32299 27409 ft 317 kts 224°
2026-05-07 18:30 39.91381 -74.34003 27803 ft 318 kts 224°
2026-05-07 18:31 39.89591 -74.35711 28183 ft 320 kts 224°
2026-05-07 18:31 39.87789 -74.37425 28613 ft 321 kts 224°
2026-05-07 18:31 39.85982 -74.39143 28995 ft 323 kts 224°
2026-05-07 18:31 39.84163 -74.40870 29272 ft 325 kts 224°
2026-05-07 18:32 39.82334 -74.42609 29603 ft 327 kts 225°
2026-05-07 18:32 39.80664 -74.44575 29958 ft 323 kts 231°
2026-05-07 18:32 39.79091 -74.46660 30255 ft 324 kts 231°
2026-05-07 18:32 39.77511 -74.48762 30581 ft 325 kts 231°
2026-05-07 18:33 39.75935 -74.50854 31001 ft 323 kts 231°
2026-05-07 18:33 39.74370 -74.52927 31426 ft 321 kts 232°
2026-05-07 18:33 39.72812 -74.54993 31855 ft 319 kts 232°
2026-05-07 18:33 39.71265 -74.57047 32276 ft 317 kts 232°
2026-05-07 18:34 39.69724 -74.59091 32707 ft 316 kts 232°
2026-05-07 18:34 39.68192 -74.61122 33142 ft 314 kts 232°
2026-05-07 18:34 39.66665 -74.63140 33578 ft 313 kts 232°
2026-05-07 18:34 39.65144 -74.65146 33860 ft 312 kts 232°
2026-05-07 18:35 39.63623 -74.67153 33901 ft 311 kts 232°
2026-05-07 18:35 39.60599 -74.71148 33904 ft 310 kts 232°
2026-05-07 18:36 39.57575 -74.75137 33908 ft 310 kts 232°
2026-05-07 18:36 39.54544 -74.79120 33904 ft 310 kts 232°
2026-05-07 18:37 39.51515 -74.83094 33902 ft 310 kts 232°
2026-05-07 18:37 39.48479 -74.87075 33902 ft 310 kts 232°
2026-05-07 18:38 39.45435 -74.91060 33901 ft 312 kts 232°
2026-05-07 18:38 39.42383 -74.95057 33897 ft 312 kts 232°
2026-05-07 18:39 39.39329 -74.99051 33907 ft 312 kts 232°
2026-05-07 18:39 39.36270 -75.03042 33913 ft 313 kts 232°
2026-05-07 18:40 39.33205 -75.07029 33947 ft 313 kts 232°
2026-05-07 18:40 39.30147 -75.11001 33916 ft 311 kts 232°
2026-05-07 18:41 39.26968 -75.14854 33906 ft 316 kts 230°
2026-05-07 18:41 39.23678 -75.18644 33913 ft 317 kts 230°
2026-05-07 18:42 39.20399 -75.22437 33914 ft 317 kts 230°
2026-05-07 18:42 39.17127 -75.26246 33906 ft 317 kts 230°
2026-05-07 18:43 39.13853 -75.30057 33906 ft 317 kts 230°
2026-05-07 18:43 39.10584 -75.33866 33906 ft 317 kts 230°
2026-05-07 18:44 39.07304 -75.37681 33907 ft 319 kts 230°
2026-05-07 18:44 39.04006 -75.41513 33907 ft 320 kts 229°
2026-05-07 18:44 39.02157 -75.43186 33939 ft 332 kts 219°
2026-05-07 18:45 38.99955 -75.44294 33904 ft 351 kts 208°
2026-05-07 18:45 38.97471 -75.44764 33909 ft 365 kts 202°
2026-05-07 18:45 38.94937 -75.45101 33908 ft 366 kts 201°
2026-05-07 18:46 38.89873 -75.45770 33920 ft 366 kts 202°
2026-05-07 18:46 38.84829 -75.46463 33918 ft 369 kts 201°
2026-05-07 18:47 38.79722 -75.47171 33926 ft 369 kts 201°
2026-05-07 18:47 38.74618 -75.47879 33924 ft 369 kts 201°
2026-05-07 18:48 38.69502 -75.48582 33926 ft 370 kts 201°
2026-05-07 18:48 38.64383 -75.49280 33928 ft 371 kts 201°
2026-05-07 18:49 38.59238 -75.49972 33936 ft 372 kts 201°
2026-05-07 18:49 38.54102 -75.50664 33937 ft 372 kts 201°
2026-05-07 18:50 38.48947 -75.51364 33941 ft 372 kts 201°
2026-05-07 18:50 38.43797 -75.52061 33878 ft 373 kts 200°
2026-05-07 18:51 38.38618 -75.52761 33942 ft 375 kts 200°
2026-05-07 18:51 38.33671 -75.54124 33943 ft 352 kts 214°
2026-05-07 18:51 38.31515 -75.55492 33943 ft 341 kts 222°
2026-05-07 18:52 38.29562 -75.57177 33944 ft 338 kts 224°
2026-05-07 18:52 38.25690 -75.60569 33941 ft 338 kts 224°
2026-05-07 18:53 38.21799 -75.63948 33925 ft 339 kts 223°
2026-05-07 18:53 38.17899 -75.67328 33935 ft 340 kts 223°
2026-05-07 18:54 38.13997 -75.70712 33929 ft 340 kts 223°
2026-05-07 18:54 38.10088 -75.74096 33925 ft 340 kts 223°
2026-05-07 18:55 38.06185 -75.77470 33922 ft 340 kts 223°
2026-05-07 18:55 38.02277 -75.80846 33845 ft 340 kts 223°
2026-05-07 18:56 37.98354 -75.84248 33919 ft 342 kts 223°
2026-05-07 18:56 37.94423 -75.87655 33917 ft 343 kts 223°
2026-05-07 18:57 37.90487 -75.91053 33916 ft 343 kts 223°
2026-05-07 18:57 37.86542 -75.94446 33940 ft 343 kts 223°
2026-05-07 18:58 37.82598 -75.97836 33927 ft 343 kts 223°
2026-05-07 18:58 37.78634 -76.01242 33929 ft 347 kts 223°
2026-05-07 18:59 37.74628 -76.04683 33934 ft 349 kts 223°
2026-05-07 18:59 37.70637 -76.08098 33933 ft 349 kts 223°
2026-05-07 19:00 37.66616 -76.11528 33930 ft 349 kts 223°
2026-05-07 19:00 37.62596 -76.14955 33975 ft 348 kts 223°
2026-05-07 19:01 37.58319 -76.17888 33933 ft 356 kts 215°
2026-05-07 19:01 37.53770 -76.20356 33931 ft 356 kts 215°
2026-05-07 19:02 37.49225 -76.22815 33938 ft 356 kts 215°
2026-05-07 19:02 37.44678 -76.25274 33941 ft 356 kts 215°
2026-05-07 19:03 37.40134 -76.27732 33945 ft 355 kts 215°
2026-05-07 19:03 37.35574 -76.30200 33945 ft 359 kts 214°
2026-05-07 19:04 37.30973 -76.32681 33951 ft 360 kts 214°
2026-05-07 19:04 37.26361 -76.35160 33934 ft 361 kts 214°
2026-05-07 19:05 37.21745 -76.37638 33929 ft 361 kts 214°
2026-05-07 19:05 37.17130 -76.40112 33924 ft 361 kts 214°
2026-05-07 19:06 37.12474 -76.42611 33925 ft 368 kts 214°
2026-05-07 19:06 37.05395 -76.46394 33924 ft 369 kts 214°
2026-05-07 19:07 37.00672 -76.48913 33930 ft 369 kts 214°
2026-05-07 19:07 36.95949 -76.51432 33941 ft 367 kts 214°
2026-05-07 19:08 36.91268 -76.53919 33927 ft 368 kts 214°
2026-05-07 19:08 36.86535 -76.56444 33927 ft 371 kts 214°
2026-05-07 19:09 36.81787 -76.58968 33926 ft 371 kts 214°
2026-05-07 19:09 36.77839 -76.61063 33925 ft 371 kts 214°
2026-05-07 19:10 36.73091 -76.63582 33925 ft 371 kts 214°
2026-05-07 19:10 36.68327 -76.66110 33924 ft 375 kts 215°
2026-05-07 19:11 36.63517 -76.68651 33925 ft 376 kts 214°
2026-05-07 19:11 36.58700 -76.71185 33923 ft 376 kts 214°
2026-05-07 19:12 36.53881 -76.73722 33909 ft 376 kts 215°
2026-05-07 19:12 36.49067 -76.76259 33847 ft 376 kts 216°
2026-05-07 19:13 36.44226 -76.78808 33900 ft 379 kts 216°
2026-05-07 19:13 36.39365 -76.81358 33898 ft 379 kts 216°
2026-05-07 19:14 36.34496 -76.83909 33899 ft 380 kts 216°
2026-05-07 19:14 36.29629 -76.86454 33891 ft 380 kts 216°
2026-05-07 19:15 36.24780 -76.88983 33888 ft 376 kts 216°
2026-05-07 19:15 36.20005 -76.91470 33896 ft 374 kts 216°
2026-05-07 19:16 36.15204 -76.93975 33898 ft 374 kts 216°
2026-05-07 19:16 36.10406 -76.96470 33891 ft 374 kts 216°
2026-05-07 19:17 36.05611 -76.98965 33876 ft 374 kts 216°
2026-05-07 19:17 36.00795 -77.01480 33869 ft 379 kts 214°
2026-05-07 19:18 35.95915 -77.04024 33870 ft 381 kts 214°
2026-05-07 19:18 35.91205 -77.06866 33869 ft 368 kts 224°
2026-05-07 19:19 35.87224 -77.10727 33869 ft 363 kts 227°
2026-05-07 19:19 35.83279 -77.14617 33864 ft 363 kts 227°
2026-05-07 19:20 35.79328 -77.18502 33847 ft 364 kts 227°
2026-05-07 19:20 35.75362 -77.22399 33846 ft 365 kts 227°
2026-05-07 19:21 35.71407 -77.26280 33839 ft 362 kts 227°
2026-05-07 19:21 35.67466 -77.30134 33831 ft 362 kts 227°
2026-05-07 19:22 35.63529 -77.33989 33830 ft 361 kts 227°
2026-05-07 19:22 35.59601 -77.37831 33833 ft 361 kts 227°
2026-05-07 19:23 35.55663 -77.41669 33830 ft 361 kts 228°
2026-05-07 19:23 35.51730 -77.45500 33840 ft 361 kts 228°
2026-05-07 19:24 35.47799 -77.49328 33866 ft 361 kts 228°
2026-05-07 19:24 35.43864 -77.53145 33863 ft 361 kts 228°
2026-05-07 19:25 35.39932 -77.56952 33860 ft 361 kts 228°
2026-05-07 19:25 35.36006 -77.60761 33868 ft 358 kts 228°
2026-05-07 19:26 35.32122 -77.64516 33859 ft 354 kts 228°
2026-05-07 19:26 35.28260 -77.68252 33860 ft 354 kts 228°
2026-05-07 19:27 35.24400 -77.71984 33863 ft 354 kts 228°
2026-05-07 19:27 35.20538 -77.75713 33866 ft 354 kts 228°
2026-05-07 19:28 35.16672 -77.79435 33870 ft 354 kts 228°
2026-05-07 19:28 35.12806 -77.83158 33844 ft 354 kts 227°
2026-05-07 19:29 35.08916 -77.86895 33874 ft 356 kts 227°
2026-05-07 19:29 35.05015 -77.90636 33862 ft 357 kts 227°
2026-05-07 19:30 35.01115 -77.94378 33883 ft 357 kts 227°
2026-05-07 19:30 34.97217 -77.98111 33867 ft 356 kts 227°
2026-05-07 19:31 34.93321 -78.01837 33868 ft 356 kts 227°
2026-05-07 19:31 34.89419 -78.05559 33859 ft 357 kts 227°
2026-05-07 19:32 34.85492 -78.09301 33872 ft 359 kts 227°
2026-05-07 19:32 34.81569 -78.13049 33870 ft 359 kts 227°
2026-05-07 19:33 34.77646 -78.16812 33870 ft 359 kts 227°
2026-05-07 19:33 34.73722 -78.20563 33872 ft 359 kts 227°
2026-05-07 19:34 34.69793 -78.24310 33872 ft 359 kts 227°
2026-05-07 19:34 34.65852 -78.28062 33867 ft 363 kts 226°
2026-05-07 19:35 34.61854 -78.31881 33877 ft 367 kts 226°
2026-05-07 19:35 34.57839 -78.35705 33878 ft 367 kts 226°
2026-05-07 19:36 34.53818 -78.39521 33879 ft 367 kts 226°
2026-05-07 19:36 34.49794 -78.43334 33876 ft 367 kts 226°
2026-05-07 19:37 34.45772 -78.47137 33878 ft 367 kts 226°
2026-05-07 19:37 34.41717 -78.50975 33886 ft 376 kts 225°
2026-05-07 19:38 34.37557 -78.54909 33885 ft 381 kts 225°
2026-05-07 19:38 34.33373 -78.58849 33886 ft 381 kts 226°
2026-05-07 19:39 34.29596 -78.63230 33889 ft 376 kts 231°
2026-05-07 19:39 34.27745 -78.65456 33565 ft 374 kts 231°
2026-05-07 19:39 34.25910 -78.67661 33146 ft 369 kts 231°
2026-05-07 19:40 34.24104 -78.69826 32742 ft 363 kts 232°
2026-05-07 19:40 34.22324 -78.71961 32329 ft 358 kts 232°
2026-05-07 19:40 34.20570 -78.74062 31904 ft 352 kts 232°
2026-05-07 19:40 34.18877 -78.76090 31566 ft 348 kts 232°
2026-05-07 19:41 34.17168 -78.78134 31189 ft 344 kts 232°
2026-05-07 19:41 34.15475 -78.80160 30818 ft 341 kts 232°
2026-05-07 19:41 34.13796 -78.82169 30459 ft 339 kts 232°
2026-05-07 19:41 34.12125 -78.84169 30099 ft 337 kts 232°
2026-05-07 19:42 34.10466 -78.86154 29718 ft 335 kts 232°
2026-05-07 19:42 34.08814 -78.88123 29363 ft 333 kts 232°
2026-05-07 19:42 34.07175 -78.90073 29019 ft 330 kts 232°
2026-05-07 19:42 34.05547 -78.92005 28691 ft 326 kts 232°
2026-05-07 19:43 34.03942 -78.93912 28366 ft 323 kts 232°
2026-05-07 19:43 34.02352 -78.95803 28047 ft 319 kts 232°
2026-05-07 19:43 34.00783 -78.97669 27724 ft 315 kts 232°
2026-05-07 19:43 33.99231 -78.99516 27404 ft 311 kts 232°
2026-05-07 19:44 33.97700 -79.01338 27083 ft 307 kts 232°
2026-05-07 19:44 33.96192 -79.03131 26772 ft 303 kts 232°
2026-05-07 19:44 33.94724 -79.04878 26463 ft 299 kts 232°
2026-05-07 19:44 33.93248 -79.06634 26157 ft 297 kts 233°
2026-05-07 19:45 33.91784 -79.08371 25838 ft 294 kts 233°
2026-05-07 19:45 33.90333 -79.10090 25512 ft 292 kts 233°
2026-05-07 19:45 33.88891 -79.11797 25196 ft 290 kts 233°
2026-05-07 19:45 33.87458 -79.13493 24879 ft 288 kts 233°
2026-05-07 19:46 33.86032 -79.15183 24524 ft 287 kts 233°
2026-05-07 19:46 33.84615 -79.16864 24198 ft 285 kts 233°
2026-05-07 19:46 33.83205 -79.18535 23875 ft 284 kts 233°
2026-05-07 19:46 33.81801 -79.20197 23546 ft 283 kts 233°
2026-05-07 19:47 33.80402 -79.21850 23179 ft 281 kts 233°
2026-05-07 19:47 33.78995 -79.23479 22843 ft 282 kts 230°
2026-05-07 19:47 33.77367 -79.24860 22423 ft 289 kts 223°
2026-05-07 19:47 33.75662 -79.26145 22027 ft 289 kts 223°
2026-05-07 19:48 33.73962 -79.27428 21629 ft 288 kts 223°
2026-05-07 19:48 33.72263 -79.28707 21243 ft 288 kts 223°
2026-05-07 19:48 33.70571 -79.29983 20846 ft 287 kts 223°
2026-05-07 19:48 33.68877 -79.31262 20439 ft 288 kts 223°
2026-05-07 19:49 33.67181 -79.32545 20041 ft 288 kts 223°
2026-05-07 19:49 33.65484 -79.33828 19638 ft 289 kts 223°
2026-05-07 19:49 33.63778 -79.35115 19234 ft 290 kts 223°
2026-05-07 19:49 33.62066 -79.36402 18818 ft 291 kts 222°
2026-05-07 19:50 33.60352 -79.37692 18413 ft 291 kts 222°
2026-05-07 19:50 33.58630 -79.38990 17980 ft 292 kts 222°
2026-05-07 19:50 33.56919 -79.40277 17629 ft 289 kts 222°
2026-05-07 19:50 33.55219 -79.41554 17239 ft 288 kts 222°
2026-05-07 19:51 33.53520 -79.42828 16846 ft 287 kts 222°
2026-05-07 19:51 33.51825 -79.44100 16420 ft 287 kts 222°
2026-05-07 19:51 33.50133 -79.45365 15983 ft 286 kts 221°
2026-05-07 19:51 33.48447 -79.46622 15627 ft 284 kts 221°
2026-05-07 19:52 33.46773 -79.47876 15249 ft 283 kts 221°
2026-05-07 19:52 33.45106 -79.49131 14871 ft 283 kts 221°
2026-05-07 19:52 33.43443 -79.50388 14488 ft 283 kts 220°
2026-05-07 19:52 33.41777 -79.51645 14103 ft 283 kts 220°
2026-05-07 19:53 33.40107 -79.52903 13715 ft 284 kts 220°
2026-05-07 19:53 33.38436 -79.54161 13297 ft 284 kts 220°
2026-05-07 19:53 33.36763 -79.55416 12905 ft 283 kts 219°
2026-05-07 19:53 33.35095 -79.56663 12517 ft 282 kts 219°
2026-05-07 19:54 33.33991 -79.57490 12261 ft 281 kts 219°
2026-05-07 19:54 33.32342 -79.58736 11875 ft 280 kts 219°
2026-05-07 19:54 33.30700 -79.59984 11489 ft 279 kts 220°
2026-05-07 19:54 33.29068 -79.61225 11112 ft 278 kts 219°
2026-05-07 19:55 33.27435 -79.62464 10724 ft 277 kts 219°
2026-05-07 19:55 33.25818 -79.63692 10476 ft 271 kts 219°
2026-05-07 19:55 33.24242 -79.64882 10219 ft 266 kts 219°
2026-05-07 19:55 33.22682 -79.66062 9887 ft 265 kts 219°
2026-05-07 19:56 33.21233 -79.67354 9464 ft 255 kts 231°
2026-05-07 19:56 33.20215 -79.68929 8964 ft 248 kts 244°
2026-05-07 19:56 33.19492 -79.70388 8624 ft 242 kts 243°
2026-05-07 19:56 33.18662 -79.72106 8273 ft 235 kts 244°
2026-05-07 19:57 33.17869 -79.73781 7939 ft 229 kts 244°
2026-05-07 19:57 33.17098 -79.75410 7629 ft 222 kts 244°
2026-05-07 19:57 33.16348 -79.76993 7326 ft 216 kts 245°
2026-05-07 19:57 33.15621 -79.78528 7036 ft 210 kts 245°
2026-05-07 19:58 33.14911 -79.80019 6758 ft 204 kts 244°
2026-05-07 19:58 33.14220 -79.81467 6466 ft 198 kts 245°
2026-05-07 19:58 33.13549 -79.82868 6190 ft 191 kts 245°
2026-05-07 19:58 33.12899 -79.84223 5918 ft 185 kts 245°
2026-05-07 19:59 33.12271 -79.85529 5665 ft 178 kts 245°
2026-05-07 19:59 33.11675 -79.86765 5440 ft 166 kts 245°
2026-05-07 19:59 33.11124 -79.87911 5192 ft 153 kts 246°
2026-05-07 19:59 33.10612 -79.88978 4994 ft 146 kts 246°
2026-05-07 20:00 33.10113 -79.90023 4789 ft 144 kts 246°
2026-05-07 20:00 33.09627 -79.91048 4591 ft 143 kts 246°
2026-05-07 20:00 33.09129 -79.92094 4394 ft 143 kts 245°
2026-05-07 20:00 33.08641 -79.93105 4202 ft 141 kts 243°
2026-05-07 20:01 33.07966 -79.93976 3998 ft 146 kts 226°
2026-05-07 20:01 33.07072 -79.94542 3786 ft 143 kts 216°
2026-05-07 20:01 33.06189 -79.95010 3583 ft 136 kts 215°
2026-05-07 20:01 33.05327 -79.95475 3392 ft 135 kts 216°
2026-05-07 20:02 33.04472 -79.95939 3209 ft 135 kts 216°
2026-05-07 20:02 33.03617 -79.96403 3020 ft 135 kts 215°
2026-05-07 20:02 33.02762 -79.96867 2832 ft 135 kts 214°
2026-05-07 20:02 33.01908 -79.97329 2644 ft 135 kts 214°
2026-05-07 20:03 33.01052 -79.97792 2458 ft 135 kts 214°
2026-05-07 20:03 33.00197 -79.98256 2273 ft 134 kts 213°
2026-05-07 20:03 32.99346 -79.98717 2083 ft 135 kts 211°
2026-05-07 20:03 32.98489 -79.99179 1883 ft 135 kts 213°
2026-05-07 20:04 32.97635 -79.99640 1704 ft 134 kts 210°
2026-05-07 20:04 32.96789 -80.00095 1514 ft 133 kts 212°
2026-05-07 20:04 32.95942 -80.00553 1320 ft 135 kts 213°
2026-05-07 20:04 32.95091 -80.01038 1041 ft 133 kts 210°
2026-05-07 20:05 32.94258 -80.01552 799 ft 133 kts 210°
2026-05-07 20:05 32.93392 -80.01968 716 ft 135 kts 205°
2026-05-07 20:05 32.92505 -80.02354 628 ft 134 kts 211°
2026-05-07 20:05 32.91648 -80.02855 400 ft 137 kts 208°
2026-05-07 20:06 32.90788 -80.03318 220 ft 135 kts 207°
2026-05-07 20:06 32.89950 -80.03767 51 ft 133 kts 207°
2026-05-07 20:06 32.89239 -80.04156 40 ft 90 kts 203°
2026-05-07 20:06 32.88782 -80.04399 39 ft 60 kts 205°
2026-05-07 20:07 32.88519 -80.04530 40 ft 26 kts 179°
2026-05-07 20:07 32.88480 -80.04455 41 ft 11 kts 94°
2026-05-07 20:07 32.88504 -80.04364 41 ft 13 kts 54°
2026-05-07 20:07 32.88563 -80.04275 40 ft 15 kts 51°
2026-05-07 20:08 32.88632 -80.04174 41 ft 17 kts 51°
2026-05-07 20:08 32.88711 -80.04052 41 ft 20 kts 51°
2026-05-07 20:08 32.88804 -80.03913 40 ft 23 kts 51°
2026-05-07 20:08 32.88896 -80.03774 41 ft 18 kts 52°
2026-05-07 20:09 32.88950 -80.03648 41 ft 16 kts 114°
2026-05-07 20:09 32.88857 -80.03626 41 ft 14 kts 189°
2026-05-07 20:09 32.88759 -80.03643 41 ft 13 kts 187°
2026-05-07 20:10 32.88627 -80.03664 41 ft 9 kts 188°
2026-05-07 20:10 32.88587 -80.03673 41 ft 7 kts 193°
2026-05-07 20:10 32.88546 -80.03682 41 ft 2 kts 181°
2026-05-07 20:10 32.88533 -80.03681 41 ft 1 kts 178°
2026-05-07 20:11 32.88528 -80.03681 41 ft 0 kts 178°